FW6629 Weather Reports


Display with metric or nautical units.
time (UTC)temp
F
wind
direction
speed
MPH
gust
MPH
rain 1hr
in
rain 24hr
in
rain mn
in
humidity
%
barometer
mb
20260503212525 70 354 3.0 10.0 0.00 0.00 0.00 32 1017.3
20260503212024 71 287 3.0 10.0 0.00 0.00 0.00 33 1017.4
20260503211547 70 298 2.0 7.0 0.00 0.00 0.00 34 1017.4
20260503211023 70 318 1.0 6.0 0.00 0.00 0.00 32 1017.5
20260503210523 70 101 2.0 11.0 0.00 0.00 0.00 32 1017.6
20260503210043 71 283 3.0 11.0 0.00 0.00 0.00 30 1017.7
20260503205524 70 344 3.0 11.0 0.00 0.00 0.00 32 1017.8
20260503205023 71 326 8.0 11.0 0.00 0.00 0.00 31 1017.8
20260503204544 71 17 3.0 9.0 0.00 0.00 0.00 30 1017.8
20260503204022 71 284 3.0 8.0 0.00 0.00 0.00 30 1017.9
20260503203523 71 311 3.0 9.0 0.00 0.00 0.00 30 1017.9
20260503203053 71 282 4.0 9.0 0.00 0.00 0.00 31 1018.0
20260503202524 70 275 3.0 11.0 0.00 0.00 0.00 33 1018.0
20260503202028 71 310 4.0 11.0 0.00 0.00 0.00 34 1018.0
20260503201541 71 338 4.0 9.0 0.00 0.00 0.00 37 1018.1
20260503201022 70 321 3.0 8.0 0.00 0.00 0.00 36 1018.2
20260503200523 70 329 2.0 9.0 0.00 0.00 0.00 36 1018.3
20260503200054 71 241 4.0 9.0 0.00 0.00 0.00 34 1018.4
20260503195524 71 300 2.0 8.0 0.00 0.00 0.00 38 1018.4
20260503195025 70 298 4.0 8.0 0.00 0.00 0.00 38 1018.7
20260503194556 70 214 2.0 7.0 0.00 0.00 0.00 37 1018.7
20260503194023 69 343 1.0 4.0 0.00 0.00 0.00 38 1018.7
20260503193527 69 131 1.0 12.0 0.00 0.00 0.00 37 1018.8
20260503193044 69 359 2.0 14.0 0.00 0.00 0.00 38 1018.9
20260503192524 69 24 7.0 14.0 0.00 0.00 0.00 36 1019.0
20260503192022 69 286 3.0 6.0 0.00 0.00 0.00 36 1019.2
20260503191546 68 293 2.0 6.0 0.00 0.00 0.00 36 1019.3
20260503191023 68 287 2.0 7.0 0.00 0.00 0.00 39 1019.4
20260503190519 67 224 2.0 7.0 0.00 0.00 0.00 39 1019.6
20260503190041 67 257 3.0 7.0 0.00 0.00 0.00 39 1019.6
20260503185522 67 0 2.0 9.0 0.00 0.00 0.00 38 1019.7
20260503185023 67 255 3.0 9.0 0.00 0.00 0.00 39 1019.7
20260503184541 67 287 2.0 8.0 0.00 0.00 0.00 37 1019.8
20260503184023 67 2 3.0 8.0 0.00 0.00 0.00 39 1019.7
20260503183523 67 324 3.0 7.0 0.00 0.00 0.00 40 1019.9
20260503183040 67 341 3.0 7.0 0.00 0.00 0.00 37 1019.8
20260503182521 67 310 1.0 5.0 0.00 0.00 0.00 41 1019.8
20260503182022 66 171 2.0 5.0 0.00 0.00 0.00 37 1019.9
20260503181542 65 0 1.0 10.0 0.00 0.00 0.00 39 1020.1
20260503181021 66 355 4.0 10.0 0.00 0.00 0.00 38 1020.2
20260503180522 66 355 2.0 5.0 0.00 0.00 0.00 40 1020.1
20260503180045 65 317 2.0 5.0 0.00 0.00 0.00 40 1020.2
20260503175522 66 309 2.0 5.0 0.00 0.00 0.00 39 1020.2
20260503175024 65 316 1.0 5.0 0.00 0.00 0.00 43 1020.3
20260503174543 65 333 1.0 5.0 0.00 0.00 0.00 39 1020.3
20260503174022 64 93 2.0 4.0 0.00 0.00 0.00 41 1020.5
20260503173523 64 0 1.0 3.0 0.00 0.00 0.00 41 1020.5
20260503173041 64 37 1.0 8.0 0.00 0.00 0.00 40 1020.7
20260503172522 64 80 2.0 8.0 0.00 0.00 0.00 44 1020.8
20260503172023 63 12 2.0 8.0 0.00 0.00 0.00 42 1020.8
20260503171546 64 4 2.0 8.0 0.00 0.00 0.00 42 1020.8
20260503171026 63 338 3.0 9.0 0.00 0.00 0.00 46 1020.8
20260503170523 63 302 4.0 9.0 0.00 0.00 0.00 44 1020.9
20260503150522 59 281 1.0 5.0 0.00 0.00 0.00 52 1021.8
20260503131025 48 7 3.0 9.0 0.00 0.00 0.00 86 1021.4
20260503130523 47 31 2.0 6.0 0.00 0.00 0.00 89 1021.3
20260503110524 40 127 0.0 2.0 0.00 0.00 0.00 88 1020.5
20260503081543 42 0 0.0 0.0 0.00 0.00 0.00 84 1019.1
20260503081024 43 0 0.0 0.0 0.00 0.00 0.00 84 1019.0
20260503080521 43 0 0.0 0.0 0.00 0.00 0.00 83 1019.0
20260503072522 44 0 0.0 1.0 0.00 0.00 0.00 83 1018.7
20260503072023 44 0 0.0 1.0 0.00 0.00 0.00 82 1018.7
20260503071602 44 8 0.0 2.0 0.00 0.00 0.00 82 1018.6
20260503071025 44 12 0.0 2.0 0.00 0.00 0.00 82 1018.6
20260503070521 44 33 0.0 2.0 0.00 0.00 0.00 81 1018.6
20260503055023 47 0 0.0 2.0 0.00 0.00 0.00 75 1018.4
20260503054555 47 0 0.0 2.0 0.00 0.00 0.00 75 1018.5
20260503054022 48 0 0.0 0.0 0.00 0.00 0.00 73 1018.4
20260503053523 48 0 0.0 0.0 0.00 0.00 0.00 73 1018.5
20260503053042 48 0 0.0 2.0 0.00 0.00 0.00 73 1018.5
20260503052521 48 0 0.0 2.0 0.00 0.00 0.00 73 1018.5
20260503052024 49 0 0.0 0.0 0.00 0.00 0.00 71 1018.4
20260503051541 49 0 0.0 2.0 0.00 0.00 0.00 71 1018.3
20260503051021 49 0 0.0 2.0 0.00 0.00 0.00 70 1018.3
20260503050522 50 345 0.0 2.0 0.00 0.00 0.00 70 1018.3
20260503050042 50 342 0.0 2.0 0.00 0.00 0.00 69 1018.1
20260503045522 50 339 0.0 2.0 0.00 0.00 0.00 68 1018.0
20260503045025 51 0 0.0 2.0 0.00 0.00 0.00 67 1018.0
20260503044540 51 0 0.0 2.0 0.00 0.00 0.00 67 1018.1
20260503044021 51 0 0.0 2.0 0.00 0.00 0.00 67 1018.0
20260503043521 52 21 0.0 2.0 0.00 0.00 0.00 67 1018.0
20260503043037 52 21 0.0 2.0 0.00 0.00 0.00 66 1017.9
20260503042521 52 0 0.0 2.0 0.00 0.00 0.00 66 1018.0
20260503042024 53 0 0.0 2.0 0.00 0.00 0.00 64 1018.0
20260503041542 53 21 0.0 2.0 0.00 0.00 0.00 64 1018.0
20260503041021 53 0 0.0 2.0 0.00 0.00 0.00 63 1017.9
20260503040521 53 357 0.0 3.0 0.00 0.00 0.00 63 1017.8
20260503040050 53 304 1.0 3.0 0.00 0.00 0.00 62 1017.8
20260503035522 54 346 1.0 3.0 0.00 0.00 0.00 62 1017.9
20260503035022 54 321 1.0 5.0 0.00 0.00 0.00 62 1017.8
20260503034541 54 320 1.0 7.0 0.00 0.00 0.00 61 1017.8
20260503034024 54 10 4.0 7.0 0.00 0.00 0.00 60 1017.9
20260503033521 54 2 3.0 6.0 0.00 0.00 0.00 60 1017.8
20260503033041 55 340 3.0 6.0 0.00 0.00 0.00 59 1018.0
20260503032525 55 348 2.0 3.0 0.00 0.00 0.00 58 1017.9
20260503032021 55 52 0.0 3.0 0.00 0.00 0.00 57 1017.9
20260503031541 55 48 1.0 3.0 0.00 0.00 0.00 57 1017.9
20260503031022 56 4 0.0 2.0 0.00 0.00 0.00 56 1018.0
20260503030521 56 46 0.0 8.0 0.00 0.00 0.00 55 1017.9
20260503030046 56 38 1.0 9.0 0.00 0.00 0.00 55 1017.9
20260503025523 56 350 3.0 10.0 0.00 0.00 0.00 54 1017.7
20260503025021 56 18 5.0 12.0 0.00 0.00 0.00 54 1017.7
20260503024543 57 335 5.0 12.0 0.00 0.00 0.00 53 1017.7
20260503024026 57 360 4.0 12.0 0.00 0.00 0.00 52 1017.6
20260503023521 57 354 5.0 9.0 0.00 0.00 0.00 52 1017.6
20260503023039 57 360 3.0 14.0 0.00 0.00 0.00 51 1017.4
20260503022521 58 8 5.0 14.0 0.00 0.00 0.00 50 1017.3
20260503022021 58 17 4.0 12.0 0.00 0.00 0.00 50 1017.2
20260503021541 58 18 4.0 11.0 0.00 0.00 0.00 49 1017.0
20260503021022 58 357 4.0 10.0 0.00 0.00 0.00 49 1017.0
20260503020522 58 352 5.0 10.0 0.00 0.00 0.00 49 1016.9
20260503020038 59 346 5.0 10.0 0.00 0.00 0.00 48 1016.8
20260503015524 59 2 6.0 10.0 0.00 0.00 0.00 47 1016.5
20260503015024 59 339 5.0 10.0 0.00 0.00 0.00 46 1016.4
20260503014542 59 351 5.0 14.0 0.00 0.00 0.00 45 1016.4
20260503014021 60 5 4.0 14.0 0.00 0.00 0.00 45 1016.3
20260503013520 60 25 7.0 14.0 0.00 0.00 0.00 45 1016.4
20260503013039 60 343 6.0 18.0 0.00 0.00 0.00 44 1016.3
20260503012521 60 357 9.0 18.0 0.00 0.00 0.00 43 1016.2
20260503012026 60 14 8.0 16.0 0.00 0.00 0.00 43 1016.2
20260503011542 61 339 7.0 16.0 0.00 0.00 0.00 42 1016.1
20260503011021 61 11 7.0 12.0 0.00 0.00 0.00 41 1015.9
20260503010522 61 10 4.0 16.0 0.00 0.00 0.00 40 1015.9
20260503010041 61 292 9.0 16.0 0.00 0.00 0.00 39 1015.9
20260503005522 62 352 6.0 15.0 0.00 0.00 0.00 39 1015.7
20260503005021 62 2 3.0 7.0 0.00 0.00 0.00 39 1015.7
20260503004541 62 317 1.0 3.0 0.00 0.00 0.00 39 1015.6
20260503004022 62 321 1.0 5.0 0.00 0.00 0.00 38 1015.5
20260503003520 62 348 2.0 6.0 0.00 0.00 0.00 37 1015.3
20260503003040 62 338 3.0 8.0 0.00 0.00 0.00 37 1015.3
20260503002520 62 296 3.0 8.0 0.00 0.00 0.00 37 1015.2
20260503002021 62 356 2.0 9.0 0.00 0.00 0.00 37 1015.2
20260503001551 63 353 3.0 11.0 0.00 0.00 0.00 36 1015.1
20260503001020 63 1 5.0 11.0 0.00 0.00 0.00 35 1015.0
20260503000521 63 20 3.0 9.0 0.00 0.00 0.00 36 1014.9
20260503000044 63 1 4.0 9.0 0.00 0.00 0.00 36 1014.7
20260502235521 63 354 3.0 11.0 0.00 0.00 0.00 35 1014.7
20260502235021 63 350 4.0 11.0 0.00 0.00 0.00 35 1014.6
20260502234547 64 297 6.0 11.0 0.00 0.00 0.00 34 1014.6
20260502234024 64 345 3.0 11.0 0.00 0.00 0.00 33 1014.5
20260502233523 64 346 3.0 10.0 0.00 0.00 0.00 33 1014.4
20260502233045 64 270 3.0 10.0 0.00 0.00 0.00 33 1014.4
20260502232524 65 6 5.0 12.0 0.00 0.00 0.00 33 1014.3
20260502232021 65 295 5.0 12.0 0.00 0.00 0.00 33 1014.3
20260502231540 65 4 6.0 12.0 0.00 0.00 0.00 33 1014.4
20260502231021 65 350 3.0 10.0 0.00 0.00 0.00 33 1014.4
20260502230522 65 358 4.0 11.0 0.00 0.00 0.00 33 1014.4
20260502230040 65 348 4.0 12.0 0.00 0.00 0.00 32 1014.4
20260502225523 65 328 5.0 15.0 0.00 0.00 0.00 31 1014.5
20260502225025 66 275 7.0 15.0 0.00 0.00 0.00 31 1014.5
20260502224537 67 341 6.0 15.0 0.00 0.00 0.00 30 1014.5
20260502224020 67 356 5.0 15.0 0.00 0.00 0.00 30 1014.5
20260502223524 68 3 7.0 16.0 0.00 0.00 0.00 29 1014.5
20260502223037 68 350 7.0 16.0 0.00 0.00 0.00 30 1014.4
20260502222521 68 33 3.0 10.0 0.00 0.00 0.00 30 1014.3
20260502222022 68 353 5.0 10.0 0.00 0.00 0.00 30 1014.3
20260502221543 68 337 3.0 11.0 0.00 0.00 0.00 30 1014.3
20260502221023 68 53 5.0 12.0 0.00 0.00 0.00 30 1014.3
20260502220523 68 350 5.0 14.0 0.00 0.00 0.00 30 1014.3
20260502220043 68 355 7.0 18.0 0.00 0.00 0.00 29 1014.2
20260502215524 68 352 7.0 18.0 0.00 0.00 0.00 29 1014.3
20260502215022 68 339 9.0 18.0 0.00 0.00 0.00 28 1014.2
20260502214542 68 359 5.0 17.0 0.00 0.00 0.00 30 1014.1
20260502214024 67 358 4.0 17.0 0.00 0.00 0.00 32 1014.2
20260502213520 67 2 5.0 17.0 0.00 0.00 0.00 30 1014.1
20260502213042 67 345 8.0 17.0 0.00 0.00 0.00 30 1013.9